This is the latest recevied weather packets stored in our database for station/object NY3Q. If no packets are shown the sender has not sent any weather packets the latest 10 day(s).
| Time | Temp. | Humidity | Pressure | Rain* | Wind** | Luminosity | Snow |
|---|---|---|---|---|---|---|---|
| 1778085529 | 32.22° C | 49% | 1017.3 hPa | 0 mm | - | 512 W/m² | - |
| 1778085223 | 32.22° C | 48% | 1017.4 hPa | 0 mm | - | 470 W/m² | - |
| 1778084919 | 32.22° C | 50% | 1017.2 hPa | 0 mm | - | 577 W/m² | - |
| 1778084617 | 32.22° C | 49% | 1017.1 hPa | 0 mm | - | 650 W/m² | - |
| 1778084315 | 32.22° C | 51% | 1017.5 hPa | 0 mm | - | 613 W/m² | - |
| 1778084012 | 31.67° C | 53% | 1017.5 hPa | 0 mm | - | 560 W/m² | - |
| 1778083710 | 31.11° C | 53% | 1017.6 hPa | 0 mm | - | 562 W/m² | - |
| 1778083406 | 30.56° C | 54% | 1017.6 hPa | 0 mm | - | 579 W/m² | - |
| 1778083105 | 30.56° C | 54% | 1017.5 hPa | 0 mm | - | 610 W/m² | - |
| 1778082801 | 30.56° C | 52% | 1017.5 hPa | 0 mm | - | 592 W/m² | - |
| 1778081673 | 30° C | 55% | 1017.5 hPa | 0 mm | - | 559 W/m² | - |
| 1778081371 | 30° C | 55% | 1017.5 hPa | 0 mm | - | 550 W/m² | - |
| 1778081067 | 30° C | 55% | 1017.7 hPa | 0 mm | - | 532 W/m² | - |
| 1778080766 | 30° C | 54% | 1017.4 hPa | 0 mm | - | 532 W/m² | - |
| 1778080463 | 30° C | 54% | 1017.5 hPa | 0 mm | - | 470 W/m² | - |
| 1778080161 | 29.44° C | 58% | 1017.5 hPa | 0 mm | - | 501 W/m² | - |
| 1778079856 | 28.89° C | 57% | 1017.1 hPa | 0 mm | - | 484 W/m² | - |
| 1778079554 | 28.89° C | 57% | 1017.4 hPa | 0 mm | - | 480 W/m² | - |
| 1778079249 | 28.33° C | 59% | 1017.4 hPa | 0 mm | - | 479 W/m² | - |
| 1778078947 | 28.33° C | 58% | 1017.6 hPa | 0 mm | - | 450 W/m² | - |
| 1778078643 | 28.33° C | 58% | 1017.3 hPa | 0 mm | - | 478 W/m² | - |
| 1778078342 | 28.33° C | 60% | 1017.2 hPa | 0 mm | - | 392 W/m² | - |
| 1778078039 | 27.78° C | 59% | 1017.2 hPa | 0 mm | - | 437 W/m² | - |
| 1778077737 | 27.78° C | 60% | 1017.1 hPa | 0 mm | - | 461 W/m² | - |
| 1778077434 | 27.78° C | 59% | 1017.2 hPa | 0 mm | - | 312 W/m² | - |
* Rain latest hour (hover to see other rain measurements)
** Current wind speed in m/s (hover to see current wind gust speed)